Location: Saluda
(35.2377°N, 82.3468°W)
Time: 05:38:46
(UTC+00:00)

Vanguard 2 - Pass Details

Date: 03 October 2022
Orbit: 553 x 2933 km, 32.9° (Epoch: 26 November)

Event Time Altitude Azimuth Distance (km) Brightness Sun altitude
Rises 16:49:58 0° 222° (SW) 4,107 11.6 50.1°
Reaches altitude 10° 16:52:30 10° 215° (SW) 3,410 11.4 50.2°
Maximum altitude 17:01:02 44° 146° (SE) 2,437 11.8 50.4°
Drops below altitude 10° 17:14:24 10° 81° (E) 5,273 11.8 50.6°
Sets 17:19:22 0° 76° (ENE) 6,533 12.2 50.6°
